Time,TemperatureF,DewpointF,PressureIn,WindDirection,WindDirectionDegrees,WindSpeedMPH,WindSpeedGustMPH,Humidity,HourlyPrecipIn,Conditions,Clouds,dailyrainin,SoftwareType,DateUTC
2013-09-15 08:52:00,55.2,49.2,0.00,NW,326,0.0,0.0,80,0.00,,,0.00,VWS V13.01,2013-09-15 13:52:00,
2013-09-15 08:57:00,55.2,49.2,0.00,NNW,333,0.0,0.0,80,0.63,,,0.00,VWS V13.01,2013-09-15 13:57:00,
2013-09-15 09:02:00,55.4,49.3,0.00,NNW,328,0.0,0.0,80,0.63,,,0.00,VWS V13.01,2013-09-15 14:02:00,
2013-09-15 09:07:00,55.4,49.3,0.00,North,1,0.0,0.0,80,0.63,,,0.00,VWS V13.01,2013-09-15 14:07:00,
2013-09-15 09:12:00,55.6,49.5,0.00,North,353,0.0,0.0,80,0.63,,,0.00,VWS V13.01,2013-09-15 14:12:00,
2013-09-15 09:17:00,55.8,50.0,0.00,North,353,0.0,0.0,81,0.63,,,0.00,VWS V13.01,2013-09-15 14:17:00,
2013-09-15 09:22:00,56.3,50.5,0.00,NNW,340,0.0,0.0,81,0.63,,,0.00,VWS V13.01,2013-09-15 14:22:00,
2013-09-15 09:27:00,56.7,50.9,0.00,ESE,120,0.0,0.0,81,0.63,,,0.00,VWS V13.01,2013-09-15 14:27:00,
2013-09-15 09:32:00,56.8,51.1,0.00,NNW,327,0.0,0.0,81,0.63,,,0.00,VWS V13.01,2013-09-15 14:32:00,
2013-09-15 09:37:00,57.2,51.4,0.00,West,259,0.0,0.0,81,0.63,,,0.00,VWS V13.01,2013-09-15 14:37:00,
2013-09-15 09:42:00,57.0,51.3,0.00,NE,37,0.0,0.0,81,0.63,,,0.00,VWS V13.01,2013-09-15 14:42:00,
2013-09-15 09:47:00,57.2,51.4,0.00,NW,312,0.0,0.0,81,0.63,,,0.00,VWS V13.01,2013-09-15 14:47:00,
2013-09-15 09:52:00,57.7,52.0,0.00,WNW,302,0.0,0.0,81,0.63,,,0.00,VWS V13.01,2013-09-15 14:52:00,
2013-09-15 09:57:00,57.9,52.1,0.00,North,357,0.0,0.0,81,0.00,,,0.00,VWS V13.01,2013-09-15 14:57:00,
2013-09-15 10:02:00,57.9,52.1,0.00,NNW,338,0.0,0.0,81,0.00,,,0.00,VWS V13.01,2013-09-15 15:02:00,
2013-09-15 10:07:00,57.7,52.0,0.00,NNW,341,0.0,0.0,81,0.00,,,0.00,VWS V13.01,2013-09-15 15:07:00,
2013-09-15 10:12:00,57.9,52.1,0.00,North,357,0.0,0.0,81,0.00,,,0.00,VWS V13.01,2013-09-15 15:12:00,
2013-09-15 10:17:00,58.5,52.7,0.00,ENE,60,0.0,0.0,81,0.00,,,0.00,VWS V13.01,2013-09-15 15:17:00,
2013-09-15 10:22:00,59.5,53.7,0.00,ENE,64,0.0,0.0,81,0.00,,,0.00,VWS V13.01,2013-09-15 15:22:00,
2013-09-15 10:28:00,59.9,53.7,0.00,East,86,0.0,0.0,80,0.00,,,0.00,VWS V13.01,2013-09-15 15:28:00,
2013-09-15 10:33:00,59.7,52.5,0.00,NW,311,2.2,5.8,77,0.00,,,0.00,VWS V13.01,2013-09-15 15:33:00,
2013-09-15 10:38:00,58.8,47.9,0.00,NE,50,3.6,3.6,67,0.00,,,0.00,VWS V13.01,2013-09-15 15:38:00,
2013-09-15 10:43:00,58.6,46.5,0.00,North,4,3.6,3.6,64,0.00,,,0.00,VWS V13.01,2013-09-15 15:43:00,
2013-09-15 10:48:00,59.0,46.8,0.00,NW,312,0.0,0.0,64,0.00,,,0.00,VWS V13.01,2013-09-15 15:48:00,
2013-09-15 10:53:00,59.0,46.4,0.00,NNW,342,0.0,2.7,63,0.00,,,0.00,VWS V13.01,2013-09-15 15:53:00,
2013-09-15 10:58:00,59.0,46.4,0.00,NW,318,3.1,3.1,63,0.00,,,0.00,VWS V13.01,2013-09-15 15:58:00,
2013-09-15 11:03:00,59.7,48.0,0.00,NNW,346,0.0,0.0,65,0.00,,,0.00,VWS V13.01,2013-09-15 16:03:00,
2013-09-15 11:08:00,60.1,47.9,0.00,West,261,0.0,0.0,64,0.00,,,0.00,VWS V13.01,2013-09-15 16:08:00,
2013-09-15 11:13:00,59.9,46.9,0.00,NNW,338,0.0,0.0,62,0.00,,,0.00,VWS V13.01,2013-09-15 16:13:00,
2013-09-15 11:18:00,60.3,46.8,0.00,WNW,299,2.7,2.7,61,0.00,,,0.00,VWS V13.01,2013-09-15 16:18:00,
2013-09-15 11:23:00,61.0,46.6,0.00,North,9,3.6,4.5,59,0.00,,,0.00,VWS V13.01,2013-09-15 16:23:00,
2013-09-15 11:28:00,61.2,44.9,0.00,NNE,12,0.0,2.7,55,0.00,,,0.00,VWS V13.01,2013-09-15 16:28:00,
2013-09-15 11:33:00,61.0,43.8,0.00,NNW,330,5.8,5.8,53,0.00,,,0.00,VWS V13.01,2013-09-15 16:33:00,
2013-09-15 11:38:00,60.6,41.9,0.00,NNW,327,3.6,4.0,50,0.00,,,0.00,VWS V13.01,2013-09-15 16:38:00,
2013-09-15 11:43:00,61.0,42.2,0.00,North,10,0.0,2.7,50,0.00,,,0.00,VWS V13.01,2013-09-15 16:43:00,
2013-09-15 11:48:00,61.2,41.9,0.00,NW,310,4.0,4.0,49,0.00,,,0.00,VWS V13.01,2013-09-15 16:48:00,
2013-09-15 11:53:00,61.0,41.7,0.00,NNW,327,2.2,3.1,49,0.00,,,0.00,VWS V13.01,2013-09-15 16:53:00,
2013-09-15 11:58:00,61.0,41.7,0.00,ESE,108,0.0,3.1,49,0.00,,,0.00,VWS V13.01,2013-09-15 16:58:00,
2013-09-15 12:03:00,61.0,41.7,0.00,West,272,0.0,3.1,49,0.00,,,0.00,VWS V13.01,2013-09-15 17:03:00,
2013-09-15 12:08:00,61.0,41.2,0.00,North,353,0.0,0.0,48,0.00,,,0.00,VWS V13.01,2013-09-15 17:08:00,
2013-09-15 12:13:00,61.0,40.1,0.00,NNW,335,0.0,2.7,46,0.00,,,0.00,VWS V13.01,2013-09-15 17:13:00,
2013-09-15 12:18:00,61.7,41.3,0.00,NE,45,0.0,0.0,47,0.00,,,0.00,VWS V13.01,2013-09-15 17:18:00,
2013-09-15 12:23:00,62.6,41.0,0.00,NE,48,0.0,0.0,45,0.00,,,0.00,VWS V13.01,2013-09-15 17:23:00,
2013-09-15 12:28:00,62.8,40.0,0.00,NNW,348,0.0,0.0,43,0.00,,,0.00,VWS V13.01,2013-09-15 17:28:00,
2013-09-15 12:33:00,62.4,38.4,0.00,North,7,3.1,5.8,41,0.00,,,0.00,VWS V13.01,2013-09-15 17:33:00,
2013-09-15 12:38:00,62.2,38.9,0.00,North,2,0.0,0.0,42,0.00,,,0.00,VWS V13.01,2013-09-15 17:38:00,
2013-09-15 12:43:00,62.1,38.7,0.00,NW,325,5.4,5.4,42,0.00,,,0.00,VWS V13.01,2013-09-15 17:43:00,
2013-09-15 12:48:00,61.9,39.2,0.00,WNW,287,0.0,0.0,43,0.00,,,0.00,VWS V13.01,2013-09-15 17:48:00,
2013-09-15 12:53:00,62.2,40.1,0.00,NNW,340,2.7,2.7,44,0.00,,,0.00,VWS V13.01,2013-09-15 17:53:00,
2013-09-15 12:58:00,62.2,39.5,0.00,North,0,3.6,3.6,43,0.00,,,0.00,VWS V13.01,2013-09-15 17:58:00,
2013-09-15 13:03:00,61.9,39.2,0.00,NNW,327,4.9,6.3,43,0.00,,,0.00,VWS V13.01,2013-09-15 18:03:00,
2013-09-15 13:08:00,61.7,39.6,0.00,North,350,0.0,0.0,44,0.00,,,0.00,VWS V13.01,2013-09-15 18:08:00,
2013-09-15 13:13:00,61.7,39.6,0.00,East,81,2.7,4.9,44,0.00,,,0.00,VWS V13.01,2013-09-15 18:13:00,
2013-09-15 13:18:00,61.5,40.0,0.00,North,353,0.0,0.0,45,0.00,,,0.00,VWS V13.01,2013-09-15 18:18:00,
2013-09-15 13:23:00,61.5,40.0,0.00,NNW,337,2.7,3.1,45,0.00,,,0.00,VWS V13.01,2013-09-15 18:23:00,
2013-09-15 13:28:00,61.7,40.2,0.00,North,6,0.0,4.0,45,0.00,,,0.00,VWS V13.01,2013-09-15 18:28:00,
2013-09-15 13:33:00,61.7,40.2,0.00,NW,319,0.0,0.0,45,0.00,,,0.00,VWS V13.01,2013-09-15 18:33:00,
2013-09-15 13:38:00,61.7,40.2,0.00,NW,315,0.0,0.0,45,0.00,,,0.00,VWS V13.01,2013-09-15 18:38:00,
2013-09-15 13:43:00,61.5,39.4,0.00,North,357,3.6,5.4,44,0.00,,,0.00,VWS V13.01,2013-09-15 18:43:00,
2013-09-15 13:48:00,61.2,39.7,0.00,NW,321,3.1,3.1,45,0.00,,,0.00,VWS V13.01,2013-09-15 18:48:00,
2013-09-15 13:53:00,61.2,40.2,0.00,NNE,13,0.0,0.0,46,0.00,,,0.00,VWS V13.01,2013-09-15 18:53:00,
2013-09-15 13:58:00,61.5,41.1,0.00,NE,37,0.0,0.0,47,0.00,,,0.00,VWS V13.01,2013-09-15 18:58:00,
2013-09-15 14:03:00,61.9,40.9,0.00,NNW,343,2.7,2.7,46,0.00,,,0.00,VWS V13.01,2013-09-15 19:03:00,
2013-09-15 14:08:00,61.9,39.8,0.00,North,0,5.8,5.8,44,0.00,,,0.00,VWS V13.01,2013-09-15 19:08:00,
2013-09-15 14:13:00,61.5,39.4,0.00,NNW,327,3.1,6.3,44,0.00,,,0.00,VWS V13.01,2013-09-15 19:13:00,
2013-09-15 14:18:00,61.2,39.1,0.00,NW,322,5.8,10.1,44,0.00,,,0.00,VWS V13.01,2013-09-15 19:18:00,
2013-09-15 14:23:00,60.8,39.3,0.00,NNW,342,4.0,11.0,45,0.00,,,0.00,VWS V13.01,2013-09-15 19:23:00,
2013-09-15 14:28:00,61.0,39.5,0.00,NNW,348,3.1,7.6,45,0.00,,,0.00,VWS V13.01,2013-09-15 19:28:00,
2013-09-15 14:33:00,61.2,39.7,0.00,North,0,4.9,5.8,45,0.00,,,0.00,VWS V13.01,2013-09-15 19:33:00,
2013-09-15 14:38:00,61.3,39.8,0.00,NNW,327,3.1,4.9,45,0.00,,,0.00,VWS V13.01,2013-09-15 19:38:00,
2013-09-15 14:43:00,61.5,40.0,0.00,North,357,3.6,3.6,45,0.00,,,0.00,VWS V13.01,2013-09-15 19:43:00,
2013-09-15 14:48:00,61.5,39.4,0.00,NNW,339,4.9,4.9,44,0.00,,,0.00,VWS V13.01,2013-09-15 19:48:00,
2013-09-15 14:53:00,61.3,39.3,0.00,ENE,74,4.9,4.9,44,0.00,,,0.00,VWS V13.01,2013-09-15 19:53:00,
2013-09-15 14:58:00,61.2,39.1,0.00,NNW,339,4.9,4.9,44,0.00,,,0.00,VWS V13.01,2013-09-15 19:58:00,
2013-09-15 15:03:00,60.8,38.2,0.00,NNE,19,3.6,4.5,43,0.00,,,0.00,VWS V13.01,2013-09-15 20:03:00,
2013-09-15 15:08:00,61.0,38.9,0.00,NW,321,5.8,5.8,44,0.00,,,0.00,VWS V13.01,2013-09-15 20:08:00,
2013-09-15 15:13:00,61.3,38.1,0.00,NNW,328,5.8,5.8,42,0.00,,,0.00,VWS V13.01,2013-09-15 20:13:00,
2013-09-15 15:18:00,61.3,36.8,0.00,North,357,8.1,8.1,40,0.00,,,0.00,VWS V13.01,2013-09-15 20:18:00,
2013-09-15 15:23:00,60.8,37.0,0.00,NE,39,5.8,5.8,41,0.00,,,0.00,VWS V13.01,2013-09-15 20:23:00,
2013-09-15 15:28:00,60.6,36.2,0.00,North,1,2.7,2.7,40,0.00,,,0.00,VWS V13.01,2013-09-15 20:28:00,
2013-09-15 15:33:00,60.4,36.7,0.00,NW,323,0.0,0.0,41,0.00,,,0.00,VWS V13.01,2013-09-15 20:33:00,
2013-09-15 15:38:00,60.8,36.3,0.00,NNW,330,2.2,3.6,40,0.00,,,0.00,VWS V13.01,2013-09-15 20:38:00,
2013-09-15 15:43:00,61.0,35.2,0.00,North,353,8.7,8.7,38,0.00,,,0.00,VWS V13.01,2013-09-15 20:43:00,
2013-09-15 15:48:00,60.6,34.9,0.00,NNW,337,2.7,6.7,38,0.00,,,0.00,VWS V13.01,2013-09-15 20:48:00,
2013-09-15 15:53:00,60.3,34.6,0.00,NNW,339,6.3,6.3,38,0.00,,,0.00,VWS V13.01,2013-09-15 20:53:00,
2013-09-15 15:58:00,59.9,34.2,0.00,North,357,3.1,6.3,38,0.00,,,0.00,VWS V13.01,2013-09-15 20:58:00,
2013-09-15 16:03:00,59.9,34.2,0.00,NNW,339,5.4,5.4,38,0.00,,,0.00,VWS V13.01,2013-09-15 21:03:00,
2013-09-15 16:08:00,60.1,34.4,0.00,North,349,4.0,4.0,38,0.00,,,0.00,VWS V13.01,2013-09-15 21:08:00,
2013-09-15 16:13:00,60.3,35.2,0.00,NNW,338,6.3,6.3,39,0.00,,,0.00,VWS V13.01,2013-09-15 21:13:00,
2013-09-15 16:18:00,60.4,34.7,0.00,NNW,345,4.0,4.9,38,0.00,,,0.00,VWS V13.01,2013-09-15 21:18:00,
2013-09-15 16:23:00,60.1,34.4,0.00,North,353,5.4,5.4,38,0.00,,,0.00,VWS V13.01,2013-09-15 21:23:00,
2013-09-15 16:28:00,59.7,34.1,0.00,North,353,6.7,7.6,38,0.00,,,0.00,VWS V13.01,2013-09-15 21:28:00,
2013-09-15 16:33:00,59.5,33.9,0.00,North,353,3.6,3.6,38,0.00,,,0.00,VWS V13.01,2013-09-15 21:33:00,
2013-09-15 16:38:00,59.5,33.9,0.00,SE,128,2.2,3.6,38,0.00,,,0.00,VWS V13.01,2013-09-15 21:38:00,
2013-09-15 16:43:00,59.5,33.9,0.00,West,276,4.0,4.0,38,0.00,,,0.00,VWS V13.01,2013-09-15 21:43:00,
2013-09-15 16:48:00,59.4,33.1,0.00,North,5,4.9,5.8,37,0.00,,,0.00,VWS V13.01,2013-09-15 21:48:00,
2013-09-15 16:53:00,59.2,33.6,0.00,NW,324,5.4,5.8,38,0.00,,,0.00,VWS V13.01,2013-09-15 21:53:00,
2013-09-15 16:58:00,59.0,32.8,0.00,NNW,345,2.2,2.7,37,0.00,,,0.00,VWS V13.01,2013-09-15 21:58:00,
2013-09-15 17:03:00,58.8,33.3,0.00,North,353,2.7,3.1,38,0.00,,,0.00,VWS V13.01,2013-09-15 22:03:00,
2013-09-15 17:08:00,58.5,33.0,0.00,NNW,346,5.4,5.4,38,0.00,,,0.00,VWS V13.01,2013-09-15 22:08:00,
2013-09-15 17:13:00,58.1,33.3,0.00,NNE,19,3.1,9.2,39,0.00,,,0.00,VWS V13.01,2013-09-15 22:13:00,
2013-09-15 17:18:00,58.1,33.3,0.00,NNW,334,3.1,5.4,39,0.00,,,0.00,VWS V13.01,2013-09-15 22:18:00,
2013-09-15 17:23:00,57.7,33.0,0.00,WNW,301,4.0,6.3,39,0.00,,,0.00,VWS V13.01,2013-09-15 22:23:00,
2013-09-15 17:28:00,57.2,32.5,0.00,NW,317,2.7,2.7,39,0.00,,,0.00,VWS V13.01,2013-09-15 22:28:00,
2013-09-15 17:33:00,56.8,33.4,0.00,NNW,341,3.1,3.1,41,0.00,,,0.00,VWS V13.01,2013-09-15 22:33:00,
2013-09-15 17:38:00,56.7,33.2,0.00,NNW,329,4.9,4.9,41,0.00,,,0.00,VWS V13.01,2013-09-15 22:38:00,
2013-09-15 17:43:00,56.3,32.9,0.00,NW,309,3.6,8.1,41,0.00,,,0.00,VWS V13.01,2013-09-15 22:43:00,
2013-09-15 17:48:00,55.9,32.6,0.00,North,357,8.1,8.1,41,0.00,,,0.00,VWS V13.01,2013-09-15 22:48:00,
2013-09-15 17:53:00,55.4,32.1,0.00,NNE,23,5.4,10.1,41,0.00,,,0.00,VWS V13.01,2013-09-15 22:53:00,
2013-09-15 17:58:00,55.2,32.0,0.00,NNW,338,2.7,4.9,41,0.00,,,0.00,VWS V13.01,2013-09-15 22:58:00,
2013-09-15 18:03:00,55.0,32.4,0.00,WNW,303,2.7,4.0,42,0.00,,,0.00,VWS V13.01,2013-09-15 23:03:00,
2013-09-15 18:08:00,55.0,32.4,0.00,North,1,3.1,3.1,42,0.00,,,0.00,VWS V13.01,2013-09-15 23:08:00,
2013-09-15 18:13:00,54.9,31.6,0.00,NNE,15,3.1,4.0,41,0.00,,,0.00,VWS V13.01,2013-09-15 23:13:00,
2013-09-15 18:18:00,54.9,31.6,0.00,NNE,14,3.6,4.9,41,0.00,,,0.00,VWS V13.01,2013-09-15 23:18:00,
2013-09-15 18:23:00,54.5,30.7,0.00,NW,316,5.4,5.4,40,0.00,,,0.00,VWS V13.01,2013-09-15 23:23:00,
2013-09-15 18:28:00,54.5,30.7,0.00,NW,316,2.2,5.4,40,0.00,,,0.00,VWS V13.01,2013-09-15 23:28:00,
2013-09-15 18:33:00,54.3,31.1,0.00,North,0,3.6,3.6,41,0.00,,,0.00,VWS V13.01,2013-09-15 23:33:00,
2013-09-15 18:38:00,54.1,31.0,0.00,NNW,331,5.8,5.8,41,0.00,,,0.00,VWS V13.01,2013-09-15 23:38:00,
2013-09-15 18:43:00,54.0,30.8,0.00,NNW,344,3.1,3.1,41,0.00,,,0.00,VWS V13.01,2013-09-15 23:43:00,
2013-09-15 18:48:00,53.6,29.9,0.00,NE,41,8.7,8.7,40,0.00,,,0.00,VWS V13.01,2013-09-15 23:48:00,
2013-09-15 18:53:00,53.4,29.1,0.00,North,2,2.7,5.4,39,0.00,,,0.00,VWS V13.01,2013-09-15 23:53:00,
2013-09-15 18:58:00,53.2,29.6,0.00,NW,325,2.7,3.1,40,0.00,,,0.00,VWS V13.01,2013-09-15 23:58:00,
2013-09-15 19:03:00,53.1,29.4,0.00,NE,41,2.7,4.0,40,0.00,,,0.00,VWS V13.01,2013-09-16 00:03:00,
2013-09-15 19:08:00,53.1,29.4,0.00,North,0,3.1,3.6,40,0.00,,,0.00,VWS V13.01,2013-09-16 00:08:00,
2013-09-15 19:13:00,52.9,29.2,0.00,North,0,3.1,3.6,40,0.00,,,0.00,VWS V13.01,2013-09-16 00:13:00,
2013-09-15 19:18:00,52.9,29.2,0.00,North,350,3.6,3.6,40,0.00,,,0.00,VWS V13.01,2013-09-16 00:18:00,
2013-09-15 19:23:00,52.7,29.7,0.00,North,357,2.7,3.6,41,0.00,,,0.00,VWS V13.01,2013-09-16 00:23:00,
2013-09-15 19:28:00,52.5,29.5,0.00,North,353,3.1,4.9,41,0.00,,,0.00,VWS V13.01,2013-09-16 00:28:00,
2013-09-15 19:33:00,52.5,29.5,0.00,NNE,21,0.0,0.0,41,0.00,,,0.00,VWS V13.01,2013-09-16 00:33:00,
2013-09-15 19:38:00,52.3,29.4,0.00,North,353,2.7,2.7,41,0.00,,,0.00,VWS V13.01,2013-09-16 00:38:00,
2013-09-15 19:43:00,52.3,29.4,0.00,NW,318,0.0,0.0,41,0.00,,,0.00,VWS V13.01,2013-09-16 00:43:00,
2013-09-15 19:48:00,52.2,29.2,0.00,NNW,337,3.6,5.8,41,0.00,,,0.00,VWS V13.01,2013-09-16 00:48:00,
2013-09-15 19:53:00,52.2,29.2,0.00,NNW,348,0.0,2.7,41,0.00,,,0.00,VWS V13.01,2013-09-16 00:53:00,
2013-09-15 19:58:00,52.2,29.2,0.00,NNW,341,4.0,6.3,41,0.00,,,0.00,VWS V13.01,2013-09-16 00:58:00,
2013-09-15 20:03:00,52.0,29.0,0.00,NW,313,7.6,7.6,41,0.00,,,0.00,VWS V13.01,2013-09-16 01:03:00,
2013-09-15 20:08:00,52.0,29.0,0.00,NNE,33,3.6,3.6,41,0.00,,,0.00,VWS V13.01,2013-09-16 01:08:00,
2013-09-15 20:13:00,51.8,28.9,0.00,ESE,104,3.1,3.1,41,0.00,,,0.00,VWS V13.01,2013-09-16 01:13:00,
2013-09-15 20:18:00,51.8,28.9,0.00,ENE,71,2.7,5.4,41,0.00,,,0.00,VWS V13.01,2013-09-16 01:18:00,
2013-09-15 20:23:00,51.6,28.7,0.00,North,0,0.0,0.0,41,0.00,,,0.00,VWS V13.01,2013-09-16 01:23:00,
2013-09-15 20:28:00,51.4,28.5,0.00,NE,37,2.7,5.8,41,0.00,,,0.00,VWS V13.01,2013-09-16 01:28:00,
2013-09-15 20:33:00,51.3,28.4,0.00,NE,47,2.7,3.1,41,0.00,,,0.00,VWS V13.01,2013-09-16 01:33:00,
2013-09-15 20:38:00,51.1,28.2,0.00,NW,324,2.7,4.0,41,0.00,,,0.00,VWS V13.01,2013-09-16 01:38:00,
2013-09-15 20:43:00,50.9,27.5,0.00,NNE,17,0.0,0.0,40,0.00,,,0.00,VWS V13.01,2013-09-16 01:43:00,
2013-09-15 20:48:00,50.7,27.3,0.00,NW,306,0.0,3.6,40,0.00,,,0.00,VWS V13.01,2013-09-16 01:48:00,
2013-09-15 20:53:00,50.4,27.0,0.00,North,353,2.2,2.7,40,0.00,,,0.00,VWS V13.01,2013-09-16 01:53:00,
2013-09-15 20:58:00,50.2,26.8,0.00,NNW,334,0.0,0.0,40,0.00,,,0.00,VWS V13.01,2013-09-16 01:58:00,
2013-09-15 21:03:00,49.8,27.1,0.00,NNW,331,2.2,3.1,41,0.00,,,0.00,VWS V13.01,2013-09-16 02:03:00,
2013-09-15 21:08:00,49.5,26.8,0.00,NNW,332,0.0,2.2,41,0.00,,,0.00,VWS V13.01,2013-09-16 02:08:00,
2013-09-15 21:13:00,49.1,26.4,0.00,NNW,328,2.7,3.1,41,0.00,,,0.00,VWS V13.01,2013-09-16 02:13:00,
2013-09-15 21:18:00,48.9,26.9,0.00,North,8,0.0,0.0,42,0.00,,,0.00,VWS V13.01,2013-09-16 02:18:00,
2013-09-15 21:23:00,48.7,26.7,0.00,North,353,0.0,2.7,42,0.00,,,0.00,VWS V13.01,2013-09-16 02:23:00,
2013-09-15 21:28:00,48.4,26.4,0.00,ENE,60,0.0,0.0,42,0.00,,,0.00,VWS V13.01,2013-09-16 02:28:00,
2013-09-15 21:33:00,48.0,26.6,0.00,North,357,0.0,0.0,43,0.00,,,0.00,VWS V13.01,2013-09-16 02:33:00,
2013-09-15 21:38:00,47.8,26.4,0.00,North,357,0.0,0.0,43,0.00,,,0.00,VWS V13.01,2013-09-16 02:38:00,
2013-09-15 21:44:00,47.5,26.1,0.00,North,357,0.0,0.0,43,0.00,,,0.00,VWS V13.01,2013-09-16 02:44:00,
2013-09-15 21:49:00,47.1,25.8,0.00,North,357,0.0,0.0,43,0.00,,,0.00,VWS V13.01,2013-09-16 02:49:00,
2013-09-15 21:54:00,46.8,26.0,0.00,North,357,0.0,0.0,44,0.00,,,0.00,VWS V13.01,2013-09-16 02:54:00,
2013-09-15 21:59:00,46.4,25.7,0.00,North,357,0.0,0.0,44,0.00,,,0.00,VWS V13.01,2013-09-16 02:59:00,
2013-09-15 22:04:00,46.0,25.9,0.00,North,357,0.0,0.0,45,0.00,,,0.00,VWS V13.01,2013-09-16 03:04:00,
2013-09-15 22:09:00,45.9,26.3,0.00,North,357,0.0,0.0,46,0.00,,,0.00,VWS V13.01,2013-09-16 03:09:00,
2013-09-15 22:14:00,45.5,25.9,0.00,North,357,0.0,0.0,46,0.00,,,0.00,VWS V13.01,2013-09-16 03:14:00,
2013-09-15 22:19:00,45.5,26.5,0.00,NW,307,2.2,2.7,47,0.00,,,0.00,VWS V13.01,2013-09-16 03:19:00,
2013-09-15 22:24:00,45.3,26.3,0.00,NW,307,0.0,0.0,47,0.00,,,0.00,VWS V13.01,2013-09-16 03:24:00,
2013-09-15 22:29:00,45.1,26.6,0.00,NW,307,0.0,0.0,48,0.00,,,0.00,VWS V13.01,2013-09-16 03:29:00,
2013-09-15 22:34:00,45.0,26.5,0.00,NW,307,0.0,0.0,48,0.00,,,0.00,VWS V13.01,2013-09-16 03:34:00,
2013-09-15 22:39:00,44.8,26.3,0.00,NW,307,0.0,0.0,48,0.00,,,0.00,VWS V13.01,2013-09-16 03:39:00,
2013-09-15 22:44:00,44.6,26.6,0.00,NNW,341,0.0,0.0,49,0.00,,,0.00,VWS V13.01,2013-09-16 03:44:00,
2013-09-15 22:49:00,44.4,27.0,0.00,NW,320,2.2,2.7,50,0.00,,,0.00,VWS V13.01,2013-09-16 03:49:00,
2013-09-15 22:54:00,44.2,26.8,0.00,NNW,327,0.0,2.7,50,0.00,,,0.00,VWS V13.01,2013-09-16 03:54:00,
2013-09-15 22:59:00,44.1,26.6,0.00,NNW,328,0.0,0.0,50,0.00,,,0.00,VWS V13.01,2013-09-16 03:59:00,
2013-09-15 23:01:00,44.1,27.1,0.00,NNW,328,0.0,0.0,51,0.00,,,0.00,VWS V13.01,2013-09-16 04:01:00,
2013-09-15 23:02:00,44.1,27.1,0.00,NNW,332,2.7,3.1,51,0.00,,,0.00,VWS V13.01,2013-09-16 04:02:00,
2013-09-15 23:07:00,44.1,27.1,0.00,NNW,332,0.0,0.0,51,0.00,,,0.00,VWS V13.01,2013-09-16 04:07:00,
2013-09-15 23:12:00,44.1,27.6,0.00,NNW,341,2.2,2.2,52,0.00,,,0.00,VWS V13.01,2013-09-16 04:12:00,
2013-09-15 23:17:00,43.9,27.4,0.00,NNW,337,0.0,0.0,52,0.00,,,0.00,VWS V13.01,2013-09-16 04:17:00,
2013-09-15 23:22:00,43.7,27.2,0.00,NNW,337,0.0,0.0,52,0.00,,,0.00,VWS V13.01,2013-09-16 04:22:00,
2013-09-15 23:27:00,43.5,27.5,0.00,NNW,346,0.0,0.0,53,0.00,,,0.00,VWS V13.01,2013-09-16 04:27:00,
2013-09-15 23:32:00,43.3,27.4,0.00,NNW,346,0.0,0.0,53,0.00,,,0.00,VWS V13.01,2013-09-16 04:32:00,
2013-09-15 23:37:00,43.2,27.2,0.00,NNW,346,0.0,0.0,53,0.00,,,0.00,VWS V13.01,2013-09-16 04:37:00,
2013-09-15 23:42:00,43.0,27.0,0.00,NNW,346,0.0,0.0,53,0.00,,,0.00,VWS V13.01,2013-09-16 04:42:00,
2013-09-15 23:47:00,42.8,27.3,0.00,NNW,346,0.0,0.0,54,0.00,,,0.00,VWS V13.01,2013-09-16 04:47:00,
2013-09-15 23:52:00,42.6,27.1,0.00,NNW,346,0.0,0.0,54,0.00,,,0.00,VWS V13.01,2013-09-16 04:52:00,
2013-09-15 23:57:00,42.4,27.0,0.00,NNW,346,0.0,0.0,54,0.00,,,0.00,VWS V13.01,2013-09-16 04:57:00,